owner,sensor,date,latitude,longitude,vertical_datum,sea_water_temperature,qcFlag 
WAVCIS,ioos:station:WAVCIS:CSI16:2,2009-06-01T00:00:00Z,29.4012,-89.0355,10.0,26.817,11111222 
WAVCIS,ioos:station:WAVCIS:CSI16:2,2009-06-01T00:15:00Z,29.4012,-89.0355,10.0,26.598,11111222 
WAVCIS,ioos:station:WAVCIS:CSI16:2,2009-06-01T00:30:00Z,29.4012,-89.0355,10.0,26.465,11111222 
WAVCIS,ioos:station:WAVCIS:CSI16:2,2009-06-01T00:45:00Z,29.4012,-89.0355,10.0,26.455,11111222 
WAVCIS,ioos:station:WAVCIS:CSI16:2,2009-06-01T01:00:00Z,29.4012,-89.0355,10.0,26.396,11111222 
WAVCIS,ioos:station:WAVCIS:CSI16:2,2009-06-01T01:15:00Z,29.4012,-89.0355,10.0,26.376,11111222 
WAVCIS,ioos:station:WAVCIS:CSI16:2,2009-06-01T01:30:00Z,29.4012,-89.0355,10.0,26.324,11111222 
WAVCIS,ioos:station:WAVCIS:CSI16:2,2009-06-01T01:45:00Z,29.4012,-89.0355,10.0,26.304,11111222 
WAVCIS,ioos:station:WAVCIS:CSI16:2,2009-06-01T02:00:00Z,29.4012,-89.0355,10.0,26.365,11111222 
WAVCIS,ioos:station:WAVCIS:CSI16:2,2009-06-01T02:15:00Z,29.4012,-89.0355,10.0,26.067,11111222 
WAVCIS,ioos:station:WAVCIS:CSI16:2,2009-06-01T02:30:00Z,29.4012,-89.0355,10.0,26.245,11111222 
WAVCIS,ioos:station:WAVCIS:CSI16:2,2009-06-01T02:45:00Z,29.4012,-89.0355,10.0,26.222,11111222 
WAVCIS,ioos:station:WAVCIS:CSI16:2,2009-06-01T03:00:00Z,29.4012,-89.0355,10.0,26.223,11111222 
WAVCIS,ioos:station:WAVCIS:CSI16:2,2009-06-01T03:15:00Z,29.4012,-89.0355,10.0,26.221,11111222 
WAVCIS,ioos:station:WAVCIS:CSI16:2,2009-06-01T03:30:00Z,29.4012,-89.0355,10.0,25.765,11111222 
WAVCIS,ioos:station:WAVCIS:CSI16:2,2009-06-01T03:45:00Z,29.4012,-89.0355,10.0,25.529,11111222 
WAVCIS,ioos:station:WAVCIS:CSI16:2,2009-06-01T04:00:00Z,29.4012,-89.0355,10.0,25.482,11111222 
WAVCIS,ioos:station:WAVCIS:CSI16:2,2009-06-01T04:15:00Z,29.4012,-89.0355,10.0,25.767,11111222 
WAVCIS,ioos:station:WAVCIS:CSI16:2,2009-06-01T04:30:00Z,29.4012,-89.0355,10.0,25.998,11111222 
WAVCIS,ioos:station:WAVCIS:CSI16:2,2009-06-01T04:45:00Z,29.4012,-89.0355,10.0,26.131,11111222 
WAVCIS,ioos:station:WAVCIS:CSI16:2,2009-06-01T05:00:00Z,29.4012,-89.0355,10.0,26.067,11111222 
WAVCIS,ioos:station:WAVCIS:CSI16:2,2009-06-01T05:15:00Z,29.4012,-89.0355,10.0,25.813,11111222 
WAVCIS,ioos:station:WAVCIS:CSI16:2,2009-06-01T05:30:00Z,29.4012,-89.0355,10.0,25.908,11111222 
WAVCIS,ioos:station:WAVCIS:CSI16:2,2009-06-01T05:45:00Z,29.4012,-89.0355,10.0,25.12,11111222 
WAVCIS,ioos:station:WAVCIS:CSI16:2,2009-06-01T06:00:00Z,29.4012,-89.0355,10.0,24.303,11111222 
WAVCIS,ioos:station:WAVCIS:CSI16:2,2009-06-01T06:15:00Z,29.4012,-89.0355,10.0,24.085,11111222 
WAVCIS,ioos:station:WAVCIS:CSI16:2,2009-06-01T06:30:00Z,29.4012,-89.0355,10.0,24.001,11111222 
WAVCIS,ioos:station:WAVCIS:CSI16:2,2009-06-01T06:45:00Z,29.4012,-89.0355,10.0,24.058,11111222 
WAVCIS,ioos:station:WAVCIS:CSI16:2,2009-06-01T07:00:00Z,29.4012,-89.0355,10.0,23.995,11111222 
WAVCIS,ioos:station:WAVCIS:CSI16:2,2009-06-01T07:15:00Z,29.4012,-89.0355,10.0,24.002,11111222 
WAVCIS,ioos:station:WAVCIS:CSI16:2,2009-06-01T07:30:00Z,29.4012,-89.0355,10.0,23.984,11111222 
WAVCIS,ioos:station:WAVCIS:CSI16:2,2009-06-01T07:45:00Z,29.4012,-89.0355,10.0,23.929,11111222 
WAVCIS,ioos:station:WAVCIS:CSI16:2,2009-06-01T08:00:00Z,29.4012,-89.0355,10.0,23.884,11111222 
WAVCIS,ioos:station:WAVCIS:CSI16:2,2009-06-01T08:15:00Z,29.4012,-89.0355,10.0,23.916,11111222 
WAVCIS,ioos:station:WAVCIS:CSI16:2,2009-06-01T08:30:00Z,29.4012,-89.0355,10.0,24.158,11111222 
WAVCIS,ioos:station:WAVCIS:CSI16:2,2009-06-01T08:45:00Z,29.4012,-89.0355,10.0,24.163,11111222 
WAVCIS,ioos:station:WAVCIS:CSI16:2,2009-06-01T09:00:00Z,29.4012,-89.0355,10.0,24.088,11111222 
WAVCIS,ioos:station:WAVCIS:CSI16:2,2009-06-01T09:15:00Z,29.4012,-89.0355,10.0,24.061,11111222 
WAVCIS,ioos:station:WAVCIS:CSI16:2,2009-06-01T09:30:00Z,29.4012,-89.0355,10.0,24.037,11111222 
WAVCIS,ioos:station:WAVCIS:CSI16:2,2009-06-01T09:45:00Z,29.4012,-89.0355,10.0,23.929,11111222 
WAVCIS,ioos:station:WAVCIS:CSI16:2,2009-06-01T10:00:00Z,29.4012,-89.0355,10.0,24.229,11111222 
WAVCIS,ioos:station:WAVCIS:CSI16:2,2009-06-01T10:15:00Z,29.4012,-89.0355,10.0,23.952,11111222 
WAVCIS,ioos:station:WAVCIS:CSI16:2,2009-06-01T10:30:00Z,29.4012,-89.0355,10.0,23.846,11111222 
WAVCIS,ioos:station:WAVCIS:CSI16:2,2009-06-01T10:45:00Z,29.4012,-89.0355,10.0,23.902,11111222 
WAVCIS,ioos:station:WAVCIS:CSI16:2,2009-06-01T11:00:00Z,29.4012,-89.0355,10.0,23.83,11111222 
WAVCIS,ioos:station:WAVCIS:CSI16:2,2009-06-01T11:15:00Z,29.4012,-89.0355,10.0,23.809,11111222 
WAVCIS,ioos:station:WAVCIS:CSI16:2,2009-06-01T11:30:00Z,29.4012,-89.0355,10.0,23.813,11111222 
WAVCIS,ioos:station:WAVCIS:CSI16:2,2009-06-01T11:45:00Z,29.4012,-89.0355,10.0,23.834,11111222 
WAVCIS,ioos:station:WAVCIS:CSI16:2,2009-06-01T12:00:00Z,29.4012,-89.0355,10.0,24.337,11111222 
WAVCIS,ioos:station:WAVCIS:CSI16:2,2009-06-01T12:15:00Z,29.4012,-89.0355,10.0,23.888,11111222 
WAVCIS,ioos:station:WAVCIS:CSI16:2,2009-06-01T12:30:00Z,29.4012,-89.0355,10.0,24.456,11111222 
WAVCIS,ioos:station:WAVCIS:CSI16:2,2009-06-01T12:45:00Z,29.4012,-89.0355,10.0,23.953,11111222 
WAVCIS,ioos:station:WAVCIS:CSI16:2,2009-06-01T13:00:00Z,29.4012,-89.0355,10.0,24.221,11111222 
WAVCIS,ioos:station:WAVCIS:CSI16:2,2009-06-01T13:15:00Z,29.4012,-89.0355,10.0,24.223,11111222 
WAVCIS,ioos:station:WAVCIS:CSI16:2,2009-06-01T13:30:00Z,29.4012,-89.0355,10.0,24.247,11111222 
WAVCIS,ioos:station:WAVCIS:CSI16:2,2009-06-01T13:45:00Z,29.4012,-89.0355,10.0,24.319,11111222 
WAVCIS,ioos:station:WAVCIS:CSI16:2,2009-06-01T14:00:00Z,29.4012,-89.0355,10.0,24.283,11111222 
WAVCIS,ioos:station:WAVCIS:CSI16:2,2009-06-01T14:15:00Z,29.4012,-89.0355,10.0,24.147,11111222 
WAVCIS,ioos:station:WAVCIS:CSI16:2,2009-06-01T14:30:00Z,29.4012,-89.0355,10.0,24.2,11111222 
WAVCIS,ioos:station:WAVCIS:CSI16:2,2009-06-01T14:45:00Z,29.4012,-89.0355,10.0,24.055,11111222 
WAVCIS,ioos:station:WAVCIS:CSI16:2,2009-06-01T15:00:00Z,29.4012,-89.0355,10.0,24.033,11111222 
WAVCIS,ioos:station:WAVCIS:CSI16:2,2009-06-01T15:15:00Z,29.4012,-89.0355,10.0,23.986,11111222 
WAVCIS,ioos:station:WAVCIS:CSI16:2,2009-06-01T15:30:00Z,29.4012,-89.0355,10.0,24.035,11111222 
WAVCIS,ioos:station:WAVCIS:CSI16:2,2009-06-01T15:45:00Z,29.4012,-89.0355,10.0,23.975,11111222 
WAVCIS,ioos:station:WAVCIS:CSI16:2,2009-06-01T16:00:00Z,29.4012,-89.0355,10.0,24.053,11111222 
WAVCIS,ioos:station:WAVCIS:CSI16:2,2009-06-01T16:15:00Z,29.4012,-89.0355,10.0,24.044,11111222 
WAVCIS,ioos:station:WAVCIS:CSI16:2,2009-06-01T16:30:00Z,29.4012,-89.0355,10.0,24.107,11111222 
WAVCIS,ioos:station:WAVCIS:CSI16:2,2009-06-01T16:45:00Z,29.4012,-89.0355,10.0,24.085,11111222 
WAVCIS,ioos:station:WAVCIS:CSI16:2,2009-06-01T17:00:00Z,29.4012,-89.0355,10.0,24.094,11111222 
WAVCIS,ioos:station:WAVCIS:CSI16:2,2009-06-01T17:15:00Z,29.4012,-89.0355,10.0,24.137,11111222 
WAVCIS,ioos:station:WAVCIS:CSI16:2,2009-06-01T17:30:00Z,29.4012,-89.0355,10.0,24.661,11111222 
WAVCIS,ioos:station:WAVCIS:CSI16:2,2009-06-01T17:45:00Z,29.4012,-89.0355,10.0,24.364,11111222 
WAVCIS,ioos:station:WAVCIS:CSI16:2,2009-06-01T18:00:00Z,29.4012,-89.0355,10.0,24.291,11111222 
WAVCIS,ioos:station:WAVCIS:CSI16:2,2009-06-01T18:15:00Z,29.4012,-89.0355,10.0,24.328,11111222 
WAVCIS,ioos:station:WAVCIS:CSI16:2,2009-06-01T18:30:00Z,29.4012,-89.0355,10.0,24.304,11111222 
WAVCIS,ioos:station:WAVCIS:CSI16:2,2009-06-01T18:45:00Z,29.4012,-89.0355,10.0,24.257,11111222 
WAVCIS,ioos:station:WAVCIS:CSI16:2,2009-06-01T19:00:00Z,29.4012,-89.0355,10.0,24.139,11111222 
WAVCIS,ioos:station:WAVCIS:CSI16:2,2009-06-01T19:15:00Z,29.4012,-89.0355,10.0,24.329,11111222 
WAVCIS,ioos:station:WAVCIS:CSI16:2,2009-06-01T19:30:00Z,29.4012,-89.0355,10.0,24.144,11111222 
WAVCIS,ioos:station:WAVCIS:CSI16:2,2009-06-01T19:45:00Z,29.4012,-89.0355,10.0,24.286,11111222 
WAVCIS,ioos:station:WAVCIS:CSI16:2,2009-06-01T20:00:00Z,29.4012,-89.0355,10.0,24.425,11111222 
WAVCIS,ioos:station:WAVCIS:CSI16:2,2009-06-01T20:15:00Z,29.4012,-89.0355,10.0,24.491,11111222 
WAVCIS,ioos:station:WAVCIS:CSI16:2,2009-06-01T20:30:00Z,29.4012,-89.0355,10.0,24.46,11111222 
WAVCIS,ioos:station:WAVCIS:CSI16:2,2009-06-01T20:45:00Z,29.4012,-89.0355,10.0,24.521,11111222 
WAVCIS,ioos:station:WAVCIS:CSI16:2,2009-06-01T21:00:00Z,29.4012,-89.0355,10.0,24.629,11111222 
WAVCIS,ioos:station:WAVCIS:CSI16:2,2009-06-01T21:15:00Z,29.4012,-89.0355,10.0,24.571,11111222 
WAVCIS,ioos:station:WAVCIS:CSI16:2,2009-06-01T21:30:00Z,29.4012,-89.0355,10.0,24.712,11111222 
WAVCIS,ioos:station:WAVCIS:CSI16:2,2009-06-01T21:45:00Z,29.4012,-89.0355,10.0,24.641,11111222 
WAVCIS,ioos:station:WAVCIS:CSI16:2,2009-06-01T22:00:00Z,29.4012,-89.0355,10.0,24.663,11111222 
WAVCIS,ioos:station:WAVCIS:CSI16:2,2009-06-01T22:15:00Z,29.4012,-89.0355,10.0,24.8,11111222 
WAVCIS,ioos:station:WAVCIS:CSI16:2,2009-06-01T22:30:00Z,29.4012,-89.0355,10.0,25.34,11111222 
WAVCIS,ioos:station:WAVCIS:CSI16:2,2009-06-01T22:45:00Z,29.4012,-89.0355,10.0,24.819,11111222 
WAVCIS,ioos:station:WAVCIS:CSI16:2,2009-06-01T23:00:00Z,29.4012,-89.0355,10.0,25.112,11111222 
WAVCIS,ioos:station:WAVCIS:CSI16:2,2009-06-01T23:15:00Z,29.4012,-89.0355,10.0,24.983,11111222 
WAVCIS,ioos:station:WAVCIS:CSI16:2,2009-06-01T23:30:00Z,29.4012,-89.0355,10.0,25.089,11111222 
WAVCIS,ioos:station:WAVCIS:CSI16:2,2009-06-01T23:45:00Z,29.4012,-89.0355,10.0,25.111,11111222 
WAVCIS,ioos:station:WAVCIS:CSI16:2,2009-06-02T00:00:00Z,29.4012,-89.0355,10.0,25.265,11111222 
WAVCIS,ioos:station:WAVCIS:CSI16:2,2009-06-02T00:15:00Z,29.4012,-89.0355,10.0,25.445,11111222 
WAVCIS,ioos:station:WAVCIS:CSI16:2,2009-06-02T00:30:00Z,29.4012,-89.0355,10.0,25.742,11111222 
WAVCIS,ioos:station:WAVCIS:CSI16:2,2009-06-02T00:45:00Z,29.4012,-89.0355,10.0,25.823,11111222 
WAVCIS,ioos:station:WAVCIS:CSI16:2,2009-06-02T01:00:00Z,29.4012,-89.0355,10.0,25.723,11111222 
WAVCIS,ioos:station:WAVCIS:CSI16:2,2009-06-02T01:15:00Z,29.4012,-89.0355,10.0,25.72,11111222 
WAVCIS,ioos:station:WAVCIS:CSI16:2,2009-06-02T01:30:00Z,29.4012,-89.0355,10.0,25.674,11111222 
WAVCIS,ioos:station:WAVCIS:CSI16:2,2009-06-02T01:45:00Z,29.4012,-89.0355,10.0,25.618,11111222 
WAVCIS,ioos:station:WAVCIS:CSI16:2,2009-06-02T02:00:00Z,29.4012,-89.0355,10.0,25.656,11111222 
WAVCIS,ioos:station:WAVCIS:CSI16:2,2009-06-02T02:15:00Z,29.4012,-89.0355,10.0,25.734,11111222 
WAVCIS,ioos:station:WAVCIS:CSI16:2,2009-06-02T02:30:00Z,29.4012,-89.0355,10.0,25.622,11111222 
WAVCIS,ioos:station:WAVCIS:CSI16:2,2009-06-02T02:45:00Z,29.4012,-89.0355,10.0,25.731,11111222 
WAVCIS,ioos:station:WAVCIS:CSI16:2,2009-06-02T03:00:00Z,29.4012,-89.0355,10.0,25.49,11111222 
WAVCIS,ioos:station:WAVCIS:CSI16:2,2009-06-02T03:15:00Z,29.4012,-89.0355,10.0,25.617,11111222 
WAVCIS,ioos:station:WAVCIS:CSI16:2,2009-06-02T03:30:00Z,29.4012,-89.0355,10.0,25.593,11111222 
WAVCIS,ioos:station:WAVCIS:CSI16:2,2009-06-02T03:45:00Z,29.4012,-89.0355,10.0,25.613,11111222 
WAVCIS,ioos:station:WAVCIS:CSI16:2,2009-06-02T04:00:00Z,29.4012,-89.0355,10.0,25.615,11111222 
WAVCIS,ioos:station:WAVCIS:CSI16:2,2009-06-02T04:15:00Z,29.4012,-89.0355,10.0,25.383,11111222 
WAVCIS,ioos:station:WAVCIS:CSI16:2,2009-06-02T04:30:00Z,29.4012,-89.0355,10.0,25.436,11111222 
WAVCIS,ioos:station:WAVCIS:CSI16:2,2009-06-02T04:45:00Z,29.4012,-89.0355,10.0,24.701,11111222 
WAVCIS,ioos:station:WAVCIS:CSI16:2,2009-06-02T05:00:00Z,29.4012,-89.0355,10.0,24.959,11111222 
WAVCIS,ioos:station:WAVCIS:CSI16:2,2009-06-02T05:15:00Z,29.4012,-89.0355,10.0,24.247,11111222 
WAVCIS,ioos:station:WAVCIS:CSI16:2,2009-06-02T05:30:00Z,29.4012,-89.0355,10.0,24.058,11111222 
WAVCIS,ioos:station:WAVCIS:CSI16:2,2009-06-02T05:45:00Z,29.4012,-89.0355,10.0,23.938,11111222 
WAVCIS,ioos:station:WAVCIS:CSI16:2,2009-06-02T06:00:00Z,29.4012,-89.0355,10.0,23.925,11111222 
WAVCIS,ioos:station:WAVCIS:CSI16:2,2009-06-02T06:15:00Z,29.4012,-89.0355,10.0,23.865,11111222 
WAVCIS,ioos:station:WAVCIS:CSI16:2,2009-06-02T06:30:00Z,29.4012,-89.0355,10.0,23.896,11111222 
WAVCIS,ioos:station:WAVCIS:CSI16:2,2009-06-02T06:45:00Z,29.4012,-89.0355,10.0,23.874,11111222 
WAVCIS,ioos:station:WAVCIS:CSI16:2,2009-06-02T07:00:00Z,29.4012,-89.0355,10.0,23.645,11111222 
WAVCIS,ioos:station:WAVCIS:CSI16:2,2009-06-02T07:15:00Z,29.4012,-89.0355,10.0,23.59,11111222 
WAVCIS,ioos:station:WAVCIS:CSI16:2,2009-06-02T07:30:00Z,29.4012,-89.0355,10.0,23.552,11111222 
WAVCIS,ioos:station:WAVCIS:CSI16:2,2009-06-02T07:45:00Z,29.4012,-89.0355,10.0,23.526,11111222 
WAVCIS,ioos:station:WAVCIS:CSI16:2,2009-06-02T08:00:00Z,29.4012,-89.0355,10.0,23.513,11111222 
WAVCIS,ioos:station:WAVCIS:CSI16:2,2009-06-02T08:15:00Z,29.4012,-89.0355,10.0,23.494,11111222 
WAVCIS,ioos:station:WAVCIS:CSI16:2,2009-06-02T08:30:00Z,29.4012,-89.0355,10.0,23.483,11111222 
WAVCIS,ioos:station:WAVCIS:CSI16:2,2009-06-02T08:45:00Z,29.4012,-89.0355,10.0,23.474,11111222 
WAVCIS,ioos:station:WAVCIS:CSI16:2,2009-06-02T09:00:00Z,29.4012,-89.0355,10.0,23.462,11111222 
WAVCIS,ioos:station:WAVCIS:CSI16:2,2009-06-02T09:15:00Z,29.4012,-89.0355,10.0,23.455,11111222 
WAVCIS,ioos:station:WAVCIS:CSI16:2,2009-06-02T09:30:00Z,29.4012,-89.0355,10.0,23.436,11111222 
WAVCIS,ioos:station:WAVCIS:CSI16:2,2009-06-02T09:45:00Z,29.4012,-89.0355,10.0,23.43,11111222 
WAVCIS,ioos:station:WAVCIS:CSI16:2,2009-06-02T10:00:00Z,29.4012,-89.0355,10.0,23.418,11111222 
WAVCIS,ioos:station:WAVCIS:CSI16:2,2009-06-02T10:15:00Z,29.4012,-89.0355,10.0,23.416,11111222 
WAVCIS,ioos:station:WAVCIS:CSI16:2,2009-06-02T10:30:00Z,29.4012,-89.0355,10.0,23.406,11111222 
WAVCIS,ioos:station:WAVCIS:CSI16:2,2009-06-02T10:45:00Z,29.4012,-89.0355,10.0,23.405,11111222 
WAVCIS,ioos:station:WAVCIS:CSI16:2,2009-06-02T11:00:00Z,29.4012,-89.0355,10.0,23.404,11111222 
WAVCIS,ioos:station:WAVCIS:CSI16:2,2009-06-02T11:15:00Z,29.4012,-89.0355,10.0,23.399,11111222 
WAVCIS,ioos:station:WAVCIS:CSI16:2,2009-06-02T11:30:00Z,29.4012,-89.0355,10.0,23.431,11111222 
WAVCIS,ioos:station:WAVCIS:CSI16:2,2009-06-02T11:45:00Z,29.4012,-89.0355,10.0,23.499,11111222 
WAVCIS,ioos:station:WAVCIS:CSI16:2,2009-06-02T12:00:00Z,29.4012,-89.0355,10.0,23.462,11111222 
WAVCIS,ioos:station:WAVCIS:CSI16:2,2009-06-02T12:15:00Z,29.4012,-89.0355,10.0,23.576,11111222 
WAVCIS,ioos:station:WAVCIS:CSI16:2,2009-06-02T12:30:00Z,29.4012,-89.0355,10.0,23.539,11111222 
WAVCIS,ioos:station:WAVCIS:CSI16:2,2009-06-02T12:45:00Z,29.4012,-89.0355,10.0,23.506,11111222 
WAVCIS,ioos:station:WAVCIS:CSI16:2,2009-06-02T13:00:00Z,29.4012,-89.0355,10.0,23.637,11111222 
WAVCIS,ioos:station:WAVCIS:CSI16:2,2009-06-02T13:15:00Z,29.4012,-89.0355,10.0,23.608,11111222 
WAVCIS,ioos:station:WAVCIS:CSI16:2,2009-06-02T13:30:00Z,29.4012,-89.0355,10.0,23.596,11111222 
WAVCIS,ioos:station:WAVCIS:CSI16:2,2009-06-02T13:45:00Z,29.4012,-89.0355,10.0,23.637,11111222 
WAVCIS,ioos:station:WAVCIS:CSI16:2,2009-06-02T14:00:00Z,29.4012,-89.0355,10.0,23.643,11111222 
WAVCIS,ioos:station:WAVCIS:CSI16:2,2009-06-02T14:15:00Z,29.4012,-89.0355,10.0,23.663,11111222 
WAVCIS,ioos:station:WAVCIS:CSI16:2,2009-06-02T14:30:00Z,29.4012,-89.0355,10.0,23.662,11111222 
WAVCIS,ioos:station:WAVCIS:CSI16:2,2009-06-02T14:45:00Z,29.4012,-89.0355,10.0,23.656,11111222 
WAVCIS,ioos:station:WAVCIS:CSI16:2,2009-06-02T15:00:00Z,29.4012,-89.0355,10.0,23.682,11111222 
WAVCIS,ioos:station:WAVCIS:CSI16:2,2009-06-02T15:15:00Z,29.4012,-89.0355,10.0,23.685,11111222 
WAVCIS,ioos:station:WAVCIS:CSI16:2,2009-06-02T15:30:00Z,29.4012,-89.0355,10.0,23.672,11111222 
WAVCIS,ioos:station:WAVCIS:CSI16:2,2009-06-02T15:45:00Z,29.4012,-89.0355,10.0,23.717,11111222 
WAVCIS,ioos:station:WAVCIS:CSI16:2,2009-06-02T16:00:00Z,29.4012,-89.0355,10.0,23.716,11111222 
WAVCIS,ioos:station:WAVCIS:CSI16:2,2009-06-02T16:15:00Z,29.4012,-89.0355,10.0,23.729,11111222 
WAVCIS,ioos:station:WAVCIS:CSI16:2,2009-06-02T16:30:00Z,29.4012,-89.0355,10.0,23.726,11111222 
WAVCIS,ioos:station:WAVCIS:CSI16:2,2009-06-02T16:45:00Z,29.4012,-89.0355,10.0,23.778,11111222 
WAVCIS,ioos:station:WAVCIS:CSI16:2,2009-06-02T17:00:00Z,29.4012,-89.0355,10.0,23.826,11111222 
WAVCIS,ioos:station:WAVCIS:CSI16:2,2009-06-02T17:15:00Z,29.4012,-89.0355,10.0,23.892,11111222 
WAVCIS,ioos:station:WAVCIS:CSI16:2,2009-06-02T17:30:00Z,29.4012,-89.0355,10.0,23.893,11111222 
WAVCIS,ioos:station:WAVCIS:CSI16:2,2009-06-02T17:45:00Z,29.4012,-89.0355,10.0,23.905,11111222 
WAVCIS,ioos:station:WAVCIS:CSI16:2,2009-06-02T18:00:00Z,29.4012,-89.0355,10.0,23.931,11111222 
WAVCIS,ioos:station:WAVCIS:CSI16:2,2009-06-02T18:15:00Z,29.4012,-89.0355,10.0,23.952,11111222 
WAVCIS,ioos:station:WAVCIS:CSI16:2,2009-06-02T18:30:00Z,29.4012,-89.0355,10.0,23.997,11111222 
WAVCIS,ioos:station:WAVCIS:CSI16:2,2009-06-02T18:45:00Z,29.4012,-89.0355,10.0,24.088,11111222 
WAVCIS,ioos:station:WAVCIS:CSI16:2,2009-06-02T19:00:00Z,29.4012,-89.0355,10.0,24.161,11111222 
WAVCIS,ioos:station:WAVCIS:CSI16:2,2009-06-02T19:15:00Z,29.4012,-89.0355,10.0,24.167,11111222 
WAVCIS,ioos:station:WAVCIS:CSI16:2,2009-06-02T19:30:00Z,29.4012,-89.0355,10.0,24.327,11111222 
WAVCIS,ioos:station:WAVCIS:CSI16:2,2009-06-02T19:45:00Z,29.4012,-89.0355,10.0,24.402,11111222 
WAVCIS,ioos:station:WAVCIS:CSI16:2,2009-06-02T20:00:00Z,29.4012,-89.0355,10.0,24.427,11111222 
WAVCIS,ioos:station:WAVCIS:CSI16:2,2009-06-02T20:15:00Z,29.4012,-89.0355,10.0,24.471,11111222 
WAVCIS,ioos:station:WAVCIS:CSI16:2,2009-06-02T20:30:00Z,29.4012,-89.0355,10.0,24.596,11111222 
WAVCIS,ioos:station:WAVCIS:CSI16:2,2009-06-02T20:45:00Z,29.4012,-89.0355,10.0,24.581,11111222 
WAVCIS,ioos:station:WAVCIS:CSI16:2,2009-06-02T21:00:00Z,29.4012,-89.0355,10.0,24.647,11111222 
WAVCIS,ioos:station:WAVCIS:CSI16:2,2009-06-02T21:15:00Z,29.4012,-89.0355,10.0,24.695,11111222 
WAVCIS,ioos:station:WAVCIS:CSI16:2,2009-06-02T21:30:00Z,29.4012,-89.0355,10.0,24.803,11111222 
WAVCIS,ioos:station:WAVCIS:CSI16:2,2009-06-02T21:45:00Z,29.4012,-89.0355,10.0,24.868,11111222 
WAVCIS,ioos:station:WAVCIS:CSI16:2,2009-06-02T22:00:00Z,29.4012,-89.0355,10.0,24.899,11111222 
WAVCIS,ioos:station:WAVCIS:CSI16:2,2009-06-02T22:15:00Z,29.4012,-89.0355,10.0,25.403,11111222 
WAVCIS,ioos:station:WAVCIS:CSI16:2,2009-06-02T22:30:00Z,29.4012,-89.0355,10.0,25.672,11111222 
WAVCIS,ioos:station:WAVCIS:CSI16:2,2009-06-02T22:45:00Z,29.4012,-89.0355,10.0,25.572,11111222 
WAVCIS,ioos:station:WAVCIS:CSI16:2,2009-06-02T23:00:00Z,29.4012,-89.0355,10.0,25.923,11111222 
WAVCIS,ioos:station:WAVCIS:CSI16:2,2009-06-02T23:15:00Z,29.4012,-89.0355,10.0,25.702,11111222 
WAVCIS,ioos:station:WAVCIS:CSI16:2,2009-06-02T23:30:00Z,29.4012,-89.0355,10.0,25.866,11111222 
WAVCIS,ioos:station:WAVCIS:CSI16:2,2009-06-02T23:45:00Z,29.4012,-89.0355,10.0,25.279,11111222 
WAVCIS,ioos:station:WAVCIS:CSI16:2,2009-06-03T00:00:00Z,29.4012,-89.0355,10.0,25.591,11111222 
WAVCIS,ioos:station:WAVCIS:CSI16:2,2009-06-03T00:15:00Z,29.4012,-89.0355,10.0,25.27,11111222 
WAVCIS,ioos:station:WAVCIS:CSI16:2,2009-06-03T00:30:00Z,29.4012,-89.0355,10.0,24.691,11111222 
WAVCIS,ioos:station:WAVCIS:CSI16:2,2009-06-03T00:45:00Z,29.4012,-89.0355,10.0,24.327,11111222 
WAVCIS,ioos:station:WAVCIS:CSI16:2,2009-06-03T01:00:00Z,29.4012,-89.0355,10.0,24.441,11111222 
WAVCIS,ioos:station:WAVCIS:CSI16:2,2009-06-03T01:15:00Z,29.4012,-89.0355,10.0,24.544,11111222 
WAVCIS,ioos:station:WAVCIS:CSI16:2,2009-06-03T01:30:00Z,29.4012,-89.0355,10.0,24.57,11111222 
WAVCIS,ioos:station:WAVCIS:CSI16:2,2009-06-03T01:45:00Z,29.4012,-89.0355,10.0,24.652,11111222 
WAVCIS,ioos:station:WAVCIS:CSI16:2,2009-06-03T02:00:00Z,29.4012,-89.0355,10.0,24.361,11111222 
WAVCIS,ioos:station:WAVCIS:CSI16:2,2009-06-03T02:15:00Z,29.4012,-89.0355,10.0,24.371,11111222 
WAVCIS,ioos:station:WAVCIS:CSI16:2,2009-06-03T02:30:00Z,29.4012,-89.0355,10.0,24.338,11111222 
WAVCIS,ioos:station:WAVCIS:CSI16:2,2009-06-03T02:45:00Z,29.4012,-89.0355,10.0,24.495,11111222 
WAVCIS,ioos:station:WAVCIS:CSI16:2,2009-06-03T03:00:00Z,29.4012,-89.0355,10.0,24.773,11111222 
WAVCIS,ioos:station:WAVCIS:CSI16:2,2009-06-03T03:15:00Z,29.4012,-89.0355,10.0,24.942,11111222 
WAVCIS,ioos:station:WAVCIS:CSI16:2,2009-06-03T03:30:00Z,29.4012,-89.0355,10.0,24.537,11111222 
WAVCIS,ioos:station:WAVCIS:CSI16:2,2009-06-03T03:45:00Z,29.4012,-89.0355,10.0,25.029,11111222 
WAVCIS,ioos:station:WAVCIS:CSI16:2,2009-06-03T04:00:00Z,29.4012,-89.0355,10.0,25.12,11111222 
WAVCIS,ioos:station:WAVCIS:CSI16:2,2009-06-03T04:15:00Z,29.4012,-89.0355,10.0,25.283,11111222 
WAVCIS,ioos:station:WAVCIS:CSI16:2,2009-06-03T04:30:00Z,29.4012,-89.0355,10.0,25.344,11111222 
WAVCIS,ioos:station:WAVCIS:CSI16:2,2009-06-03T04:45:00Z,29.4012,-89.0355,10.0,25.378,11111222 
WAVCIS,ioos:station:WAVCIS:CSI16:2,2009-06-03T05:00:00Z,29.4012,-89.0355,10.0,25.341,11111222 
WAVCIS,ioos:station:WAVCIS:CSI16:2,2009-06-03T05:15:00Z,29.4012,-89.0355,10.0,25.287,11111222 
WAVCIS,ioos:station:WAVCIS:CSI16:2,2009-06-03T05:30:00Z,29.4012,-89.0355,10.0,25.49,11111222 
WAVCIS,ioos:station:WAVCIS:CSI16:2,2009-06-03T05:45:00Z,29.4012,-89.0355,10.0,25.503,11111222 
WAVCIS,ioos:station:WAVCIS:CSI16:2,2009-06-03T06:00:00Z,29.4012,-89.0355,10.0,25.067,11111222 
WAVCIS,ioos:station:WAVCIS:CSI16:2,2009-06-03T06:15:00Z,29.4012,-89.0355,10.0,23.997,11111222 
WAVCIS,ioos:station:WAVCIS:CSI16:2,2009-06-03T06:30:00Z,29.4012,-89.0355,10.0,23.878,11111222 
WAVCIS,ioos:station:WAVCIS:CSI16:2,2009-06-03T06:45:00Z,29.4012,-89.0355,10.0,23.809,11111222 
WAVCIS,ioos:station:WAVCIS:CSI16:2,2009-06-03T07:00:00Z,29.4012,-89.0355,10.0,23.743,11111222 
WAVCIS,ioos:station:WAVCIS:CSI16:2,2009-06-03T07:15:00Z,29.4012,-89.0355,10.0,23.754,11111222 
WAVCIS,ioos:station:WAVCIS:CSI16:2,2009-06-03T07:30:00Z,29.4012,-89.0355,10.0,23.742,11111222 
WAVCIS,ioos:station:WAVCIS:CSI16:2,2009-06-03T07:45:00Z,29.4012,-89.0355,10.0,23.679,11111222 
WAVCIS,ioos:station:WAVCIS:CSI16:2,2009-06-03T08:00:00Z,29.4012,-89.0355,10.0,23.693,11111222 
WAVCIS,ioos:station:WAVCIS:CSI16:2,2009-06-03T08:15:00Z,29.4012,-89.0355,10.0,23.726,11111222 
WAVCIS,ioos:station:WAVCIS:CSI16:2,2009-06-03T08:30:00Z,29.4012,-89.0355,10.0,23.686,11111222 
WAVCIS,ioos:station:WAVCIS:CSI16:2,2009-06-03T08:45:00Z,29.4012,-89.0355,10.0,23.651,11111222 
WAVCIS,ioos:station:WAVCIS:CSI16:2,2009-06-03T09:00:00Z,29.4012,-89.0355,10.0,23.64,11111222 
WAVCIS,ioos:station:WAVCIS:CSI16:2,2009-06-03T09:15:00Z,29.4012,-89.0355,10.0,23.591,11111222 
WAVCIS,ioos:station:WAVCIS:CSI16:2,2009-06-03T09:30:00Z,29.4012,-89.0355,10.0,23.576,11111222 
WAVCIS,ioos:station:WAVCIS:CSI16:2,2009-06-03T09:45:00Z,29.4012,-89.0355,10.0,23.546,11111222 
WAVCIS,ioos:station:WAVCIS:CSI16:2,2009-06-03T10:00:00Z,29.4012,-89.0355,10.0,23.53,11111222 
WAVCIS,ioos:station:WAVCIS:CSI16:2,2009-06-03T10:15:00Z,29.4012,-89.0355,10.0,23.503,11111222 
WAVCIS,ioos:station:WAVCIS:CSI16:2,2009-06-03T10:30:00Z,29.4012,-89.0355,10.0,23.453,11111222 
WAVCIS,ioos:station:WAVCIS:CSI16:2,2009-06-03T10:45:00Z,29.4012,-89.0355,10.0,23.448,11111222 
WAVCIS,ioos:station:WAVCIS:CSI16:2,2009-06-03T11:00:00Z,29.4012,-89.0355,10.0,23.43,11111222 
WAVCIS,ioos:station:WAVCIS:CSI16:2,2009-06-03T11:15:00Z,29.4012,-89.0355,10.0,23.429,11111222 
WAVCIS,ioos:station:WAVCIS:CSI16:2,2009-06-03T11:30:00Z,29.4012,-89.0355,10.0,23.415,11111222 
WAVCIS,ioos:station:WAVCIS:CSI16:2,2009-06-03T11:45:00Z,29.4012,-89.0355,10.0,23.405,11111222 
WAVCIS,ioos:station:WAVCIS:CSI16:2,2009-06-03T12:00:00Z,29.4012,-89.0355,10.0,23.393,11111222 
WAVCIS,ioos:station:WAVCIS:CSI16:2,2009-06-03T12:15:00Z,29.4012,-89.0355,10.0,23.395,11111222 
WAVCIS,ioos:station:WAVCIS:CSI16:2,2009-06-03T12:30:00Z,29.4012,-89.0355,10.0,23.418,11111222 
WAVCIS,ioos:station:WAVCIS:CSI16:2,2009-06-03T12:45:00Z,29.4012,-89.0355,10.0,23.421,11111222 
WAVCIS,ioos:station:WAVCIS:CSI16:2,2009-06-03T13:00:00Z,29.4012,-89.0355,10.0,23.429,11111222 
WAVCIS,ioos:station:WAVCIS:CSI16:2,2009-06-03T13:15:00Z,29.4012,-89.0355,10.0,23.442,11111222 
WAVCIS,ioos:station:WAVCIS:CSI16:2,2009-06-03T13:30:00Z,29.4012,-89.0355,10.0,23.422,11111222 
WAVCIS,ioos:station:WAVCIS:CSI16:2,2009-06-03T13:45:00Z,29.4012,-89.0355,10.0,23.491,11111222 
WAVCIS,ioos:station:WAVCIS:CSI16:2,2009-06-03T14:00:00Z,29.4012,-89.0355,10.0,23.511,11111222 
WAVCIS,ioos:station:WAVCIS:CSI16:2,2009-06-03T14:15:00Z,29.4012,-89.0355,10.0,23.546,11111222 
WAVCIS,ioos:station:WAVCIS:CSI16:2,2009-06-03T14:30:00Z,29.4012,-89.0355,10.0,23.501,11111222 